Hourly Data Report for November 04, 2017

TORONTO CITY
ONTARIO

43°40'00.000" N
79°24'00.000" W
112.50 m
6158355
71508
XTO

Download Data

Hourly Data (November 2017)
Hourly Data Report for November 4, 2017
TIME
LST
Temp Definition
°C
Dew Point Definition
°C
Rel Hum Definition
%
Precip. Amount Definition
mm

Wind Dir Definition
10's deg

Wind Spd Definition
km/h
Visibility Definition
km
Stn Press Definition
kPa
Hmdx Definition


Wind Chill Definition


Weather Definition


00:00 5.1 0.1 70 0.0 LegendMM LegendMM   101.43     LegendNANA
01:00 5.5 -1.0 63 0.0 LegendMM LegendMM   101.38     LegendNANA
02:00 5.2 -0.9 65 0.0 LegendMM LegendMM   101.41     LegendNANA
03:00 4.9 -1.1 65 0.0 LegendMM LegendMM   101.40     LegendNANA
04:00 3.8 -1.0 71 0.0 LegendMM LegendMM   101.43     LegendNANA
05:00 4.4 -1.6 65 0.0 LegendMM LegendMM   101.44     LegendNANA
06:00 4.0 -1.3 69 0.0 LegendMM LegendMM   101.40     LegendNANA
07:00 4.3 -0.8 70 0.0 LegendMM LegendMM   101.39     LegendNANA
08:00 4.8 0.0 71 0.0 LegendMM LegendMM   101.40     LegendNANA
09:00 5.4 0.0 68 0.0 LegendMM LegendMM   101.40     LegendNANA
10:00 4.9 -0.5 68 0.0 LegendMM LegendMM   101.40     LegendNANA
11:00 5.2 -0.1 69 0.0 LegendMM LegendMM   101.36     LegendNANA
12:00 6.1 0.2 66 0.0 LegendMM LegendMM   101.22     LegendNANA
13:00 6.2 0.4 67 0.0 LegendMM LegendMM   101.17     LegendNANA
14:00 6.2 -0.7 61 0.0 LegendMM LegendMM   101.11     LegendNANA
15:00 6.0 -0.1 65 0.0 LegendMM LegendMM   100.99     LegendNANA
16:00 5.8 1.2 72 0.0 LegendMM LegendMM   100.90     LegendNANA
17:00 5.6 1.3 74 0.0 LegendMM LegendMM   100.93     LegendNANA
18:00 5.8 0.7 70 0.0 LegendMM LegendMM   100.87     LegendNANA
19:00 6.0 1.3 72 0.0 LegendMM LegendMM   100.74     LegendNANA
20:00 5.6 1.2 73 0.0 LegendMM LegendMM   100.67     LegendNANA
21:00 5.8 2.0 77 0.0 LegendMM LegendMM   100.54     LegendNANA
22:00 6.3 3.0 79 0.0 LegendMM LegendMM   100.46     LegendNANA
23:00 6.1 3.7 85 0.2 LegendMM LegendMM   100.37     LegendNANA

Notes on Data Quality.

Legend

  • E = Estimated
  • M = Missing
  • NA = Not Available*
  • [empty] = Indicates an unobserved value
Date modified: